Location: Huhtamo
(61.0833°N, 22.9167°E)
Time: 07:33:04
(UTC+00:00)

Daily predictions for brighter satellites

Satellite Brightness Start Highest point End
(mag) Time Altitude Azimuth Time Altitude Azimuth Time Altitude Azimuth
Cosmos 2278 Rocket 3.2 15:18:06 10° W 15:23:25 39° NNW 15:28:44 10° NE
RESURS DK-1 3.9 15:21:24 10° WNW 15:24:57 26° N 15:28:31 10° NE
ATLAS 5 CENTAUR R/B 1.9 15:22:07 10° SW 15:26:25 63° SE 15:31:26 10° ENE
SL-08 R/B 3.9 15:22:06 10° NNE 15:26:57 65° WNW 15:31:50 10° SW
USA 308 4.4 15:23:35 10° WSW 15:27:24 32° S 15:31:13 10° ESE
CZ-4B R/B 2.7 15:26:40 10° NE 15:29:12 20° E 15:31:39 10° SE
Cosmos 1726 2.2 15:26:38 10° SSW 15:30:23 85° WNW 15:34:09 10° NNE
Cosmos 2228 3.8 15:27:07 10° SSE 15:30:48 29° E 15:34:31 10° NNE
Cosmos 1758 3.8 15:26:54 10° SSW 15:31:00 69° WNW 15:35:07 10° NNE
Cosmos 1655 Rocket 4.4 15:25:43 10° NNW 15:32:08 73° W 15:38:30 10° S
Cosmos 1452 Rocket 3.8 15:27:24 10° S 15:32:27 49° ESE 15:37:34 10° NE
Cosmos 1939 Rocket 3.2 15:29:18 10° SE 15:33:01 42° ENE 15:36:43 10° N
YAOGAN 6 3.0 15:30:08 10° S 15:33:48 71° WSW 15:37:33 10° NNW
NOSS 7 (H) 4.5 15:32:40 10° W 15:35:35 57° N 15:38:54 10° ENE
Cosmos 1844 Rocket 3.8 15:31:42 10° WNW 15:36:43 31° N 15:41:44 10° ENE
Cosmos 2098 Rocket 4.0 15:34:20 10° NNW 15:37:29 38° W 15:40:17 10° SSW
CZ-4B R/B 3.6 15:32:55 10° SSE 15:38:30 72° WSW 15:44:00 10° NNW
Cosmos 1606 Rocket 4.3 15:35:07 10° SSE 15:39:02 33° E 15:43:00 10° NNE
ARGOS 4.0 15:35:13 10° ESE 15:39:49 29° NE 15:44:27 10° N
Helios 1A Rocket 3.3 15:36:03 10° SE 15:39:55 41° ENE 15:43:47 10° N
Cosmos 2266 Rocket 4.3 15:33:54 10° NNW 15:40:07 78° W 15:46:24 10° S
Cosmos 1624 Rocket 4.2 15:35:21 10° SW 15:40:39 79° NW 15:46:03 10° NNE
Meteor 2-16 Rocket 4.4 15:35:20 10° NNW 15:41:26 68° ENE 15:47:30 10° SSE
Cosmos 1656 Rocket 3.7 15:36:35 10° SSW 15:42:10 69° SE 15:47:51 10° NE
Cosmos 2227 Rocket 2.2 15:37:09 10° NW 15:42:52 85° NE 15:48:32 10° SE
Okean-O 3.0 15:40:54 10° SE 15:45:06 43° ENE 15:49:19 10° N
Cosmos 1689 Rocket 3.9 15:44:31 11° ENE 15:45:40 13° E 15:47:10 10° ESE
Timation 1 Rocket 4.5 15:40:46 10° NW 15:46:46 60° NE 15:52:43 10° ESE
Meteor 1-16 Rocket 4.1 15:41:14 10° S 15:46:46 71° ESE 15:52:11 10° NNE
AQUARIUS 4.5 15:42:27 10° SSE 15:46:58 74° WSW 15:51:30 10° NNW
Cosmos 1244 Rocket 4.5 15:42:15 10° NNW 15:48:26 65° ENE 15:54:37 10° SSE
Cosmos 2263 Rocket 2.8 15:43:10 10° NW 15:48:33 41° NNE 15:53:51 10° E
NOSS 3-4 (A) 3.7 15:42:30 10° WNW 15:49:00 81° NNE 15:56:16 10° ESE
NOSS 3-4 (C) 3.7 15:42:36 10° WNW 15:49:06 81° NNE 15:56:22 10° ESE
Cosmos 2058 3.6 15:45:41 10° N 15:49:24 32° ENE 15:53:06 10° SE
H-2A R/B 2.7 15:45:11 10° ESE 15:50:09 37° NE 15:55:08 10° N
GEOS 3 Rocket 3.8 15:45:43 10° ESE 15:51:07 86° SSW 15:56:35 10° WNW
Ariane Rocket 4.2 15:47:35 10° E 15:51:28 22° NE 15:55:22 10° N
EP 3 3.4 15:50:04 10° WSW 15:52:00 85° SSE 15:53:26 17° ENE
Cosmos 1892 3.2 15:48:25 10° N 15:52:06 39° ENE 15:55:46 10° SE
Cosmos 1400 Rocket 4.0 15:49:06 10° SE 15:52:16 22° E 15:55:26 10° NE
CZ-4C R/B 2.7 15:46:15 10° W 15:52:17 73° N 15:59:14 12° E
Cosmos 304 Rocket 3.7 15:48:01 10° SSW 15:52:49 79° ESE 15:57:38 10° NE
Cosmos 1908 3.2 15:50:38 10° S 15:54:28 73° ESE 15:58:23 10° NNE
CZ-4 R/B 1.6 15:53:10 10° SE 15:56:50 43° ENE 16:00:31 10° N
Cosmos 2297 4.5 15:51:23 10° WSW 15:56:51 48° NNW 16:02:19 10° NE
Cosmos 1408 3.4 15:53:40 10° N 15:56:57 30° ENE 16:00:14 10° SE
CSL-04 Rocket 4.1 15:52:16 10° SE 15:57:27 42° NE 16:02:36 10° NNW
CZ-4C R/B 3.0 15:55:19 10° NNE 15:58:33 76° WNW 16:01:51 10° SSW
Cosmos 1356 Rocket 3.5 15:55:53 10° SSW 16:00:11 89° WNW 16:04:33 10° NNE
Cosmos 1455 Rocket 4.4 15:56:21 10° SW 16:00:28 41° WNW 16:04:38 10° N
Cosmos 1953 Rocket 3.6 15:56:22 10° NNW 16:00:48 89° ENE 16:05:14 10° SSE
NOSS 2-1 (C) 3.2 16:00:31 10° SW 16:03:55 65° SSE 16:07:12 15° ENE
Cosmos 1697 Rocket 4.3 16:05:21 10° ESE 16:07:49 13° E 16:07:49 13° E
Cosmos 2263 4.4 16:03:14 10° SW 16:09:01 80° NW 16:14:48 10° NE
NOSS 2-1 (D) 3.2 16:05:44 10° SW 16:09:09 69° SSE 16:12:17 16° ENE
Cosmos 1331 Rocket 4.3 16:04:41 10° S 16:09:32 43° ESE 16:14:25 10° NE
Cosmos 1346 Rocket 3.0 16:06:36 10° N 16:10:30 48° ENE 16:14:23 10° SE
SL-4 R/B 3.7 16:08:03 10° SW 16:10:36 19° S 16:13:16 10° SE
USA 215 3.5 16:04:18 11° ESE 16:10:39 64° S 16:17:10 10° W
IRS-1C Rocket 4.1 16:05:38 10° SSE 16:10:55 89° ENE 16:16:16 10° NNW
ATLAS 2AS CENTAUR R/B 3.0 16:03:13 10° WNW 16:11:07 82° NNE 16:17:50 13° ESE
Cosmos 1300 3.0 16:07:29 10° SSE 16:11:07 44° E 16:14:47 10° NNE
SeaSat 1 2.5 16:07:20 10° ESE 16:12:13 62° NE 16:17:07 10° NW
Cosmos 2058 Rocket 3.7 16:08:08 10° SSE 16:12:15 36° E 16:16:24 10° NNE
Cosmos 1825 2.9 16:09:59 10° N 16:13:27 32° ENE 16:16:47 11° SE
CZ-2D R/B 3.1 16:12:41 10° SSE 16:16:29 73° ENE 16:20:18 10° NNW
CSL-04 DEB 4.3 16:13:29 10° NNE 16:17:30 88° WNW 16:21:26 10° SSW
Cosmos 1953 3.3 16:14:01 10° SW 16:17:52 48° WNW 16:21:46 10° N
Cosmos 44 4.3 16:14:27 10° S 16:18:17 26° ESE 16:20:38 18° E
Cosmos 968 Rocket 3.6 16:14:51 10° NW 16:20:08 82° WSW 16:25:21 10° SSE
ERS-2 2.0 16:18:00 10° NNE 16:21:40 64° ESE 16:25:17 10° S
SAR-Lupe-4 3.9 16:18:17 10° NNE 16:21:44 41° E 16:25:09 10° S
Cosmos 1633 4.5 16:20:37 10° NNE 16:22:08 14° NE 16:22:08 14° NE
Cosmos 2297 Rocket 2.9 16:17:06 10° NW 16:22:40 57° WSW 16:28:13 10° SSE
Cosmos 1818 3.6 16:17:35 10° SW 16:23:02 79° SE 16:27:31 16° ENE
SJ-11-01 4.4 16:18:34 10° SE 16:23:05 50° ENE 16:27:38 10° NNW
COSMOS 2455 3.4 16:18:27 10° WNW 16:24:20 48° N 16:28:52 17° ENE
In-Cosmos 22 Rocket 4.1 16:19:45 10° NNW 16:25:07 90° ENE 16:30:33 10° SSE
SJ 16-02 2.8 16:21:54 10° NNW 16:25:26 22° NNE 16:27:09 18° ENE
MOS 1 Rocket 4.3 16:22:11 10° NE 16:25:50 23° E 16:29:36 10° SE
Cosmos 1340 2.8 16:22:27 10° NNW 16:26:15 78° WSW 16:30:02 10° S
OBJECT-B 3.1 16:27:19 12° NE 16:27:19 12° NE 16:28:11 10° NNE
Cosmos 1777 Rocket 4.3 16:21:49 10° NNW 16:26:52 46° NE 16:30:35 18° ESE
Cosmos 1420 Rocket 4.4 16:21:48 10° SW 16:27:01 65° NW 16:32:15 10° NNE
Cosmos 2369 Rocket 2.7 16:21:51 10° WSW 16:27:30 58° NW 16:33:12 10° NE
COSMO-SKYMED 1 2.9 16:23:21 10° NNE 16:27:32 43° E 16:31:42 10° S
Aureole 3 Rocket 3.7 16:24:01 10° SSE 16:28:24 50° E 16:34:33 10° NNE
Cosmos 1076 Rocket 3.6 16:25:03 10° N 16:29:13 49° ENE 16:33:21 10° SE
H-2A R/B 2.5 16:25:26 10° NNE 16:29:37 62° WNW 16:33:42 10° SW
Cosmos 371 Rocket 4.3 16:26:10 10° WSW 16:30:49 45° NW 16:35:33 10° NNE
SL-08 ROCKET BODY 4.4 16:26:38 10° NNW 16:32:44 76° ENE 16:38:54 10° SSE
S3M 4.4 16:29:04 10° SSE 16:34:40 39° E 16:40:21 10° NNE
NOSS 7 (E) 4.5 16:32:24 10° WNW 16:35:26 57° N 16:36:51 29° ENE
Cosmos 2227 4.3 16:30:19 10° NW 16:35:54 57° NE 16:39:46 20° ESE
HJ-1C 3.6 16:34:03 17° SE 16:36:22 46° ENE 16:39:38 10° N
CSL-04 Debris 4.1 16:32:16 10° SSE 16:37:42 71° ENE 16:43:11 10° NNW
Cosmos 1110 Rocket 3.9 16:32:51 10° SSW 16:38:03 67° ESE 16:43:14 10° NE
ADEOS Rocket 3.5 16:33:13 10° NNE 16:39:16 68° WNW 16:46:01 10° SW
SAR-Lupe-1 4.1 16:36:06 10° NNE 16:39:40 56° ESE 16:43:13 10° S
Cosmos 1302 Rocket 4.4 16:35:33 10° S 16:40:29 43° ESE 16:45:30 10° NE
Genesis I 3.6 16:37:23 10° W 16:41:11 53° N 16:43:12 25° ENE
Lacrosse 5 2.2 16:36:23 10° WSW 16:41:20 55° S 16:44:18 23° ESE
Okean 3 Rocket 4.4 16:42:49 10° N 16:46:44 30° ENE 16:47:36 28° E
Resurs 01 Rocket 3.1 16:46:53 19° NE 16:47:07 20° NE 16:50:17 10° N
Cosmos 292 Rocket 3.8 16:42:32 10° SSW 16:47:16 59° ESE 16:51:47 11° NE
Aureole 3 2.6 16:44:22 10° S 16:47:19 55° E 16:49:30 17° NNE
Okean O Rocket 4.1 16:44:53 10° SSW 16:48:29 25° W 16:52:05 10° NW
Meteor 2-3 Rocket 4.2 16:43:54 10° NNW 16:49:18 41° ENE 16:52:25 23° ESE
YAOGAN 1 2.6 16:45:27 10° SSE 16:49:48 83° WSW 16:54:11 10° NNW
Cosmos 1503 Rocket 4.1 16:44:54 10° NW 16:50:07 78° WSW 16:55:22 10° SSE
ERBS 3.0 16:46:56 10° WSW 16:50:08 41° S 16:51:09 31° SE
Cosmos 1766 Rocket 4.4 16:46:29 10° N 16:50:30 31° ENE 16:51:19 29° E
Meteor 2-8 Rocket 4.4 16:44:56 10° S 16:51:00 67° E 16:57:07 10° NNE
SKYMED 3 4.5 16:47:19 10° NNE 16:51:41 65° ESE 16:56:01 10° S
Cosmos 1441 Rocket 4.0 16:48:54 10° N 16:52:23 30° ENE 16:52:28 30° ENE
ARIANE 5 R/B 4.4 16:53:28 16° NE 16:53:30 16° NE 16:56:15 10° N
SPOT 3 Rocket 4.5 16:53:06 26° ENE 16:54:34 30° NE 16:59:05 10° N
CZ-2C R/B 3.3 16:50:30 10° SSE 16:56:17 83° WSW 17:01:51 10° NNW
Cosmos 1726 Rocket 3.7 16:56:38 10° SSW 17:01:00 75° WNW 17:05:27 10° NNE
Cosmos 1943 Rocket 3.3 16:56:22 10° W 17:01:32 38° NNW 17:06:01 13° NE
Cosmos 1354 Rocket 4.2 16:56:22 10° NW 17:01:38 74° WSW 17:06:53 10° SSE
Cosmos 2082 4.2 16:56:03 10° NW 17:01:41 60° WSW 17:07:20 10° SSE
CZ-4B R/B 2.0 16:58:30 10° N 17:01:44 54° WNW 17:04:53 10° SW
NOSS 2-1 (E) 3.3 16:58:48 10° WSW 17:02:23 81° NNW 17:04:07 34° ENE
Cosmos 1553 Rocket 3.9 16:57:49 10° S 17:04:05 70° E 17:10:19 10° NNE
RESURS DK-1 3.7 17:00:29 10° NW 17:04:06 27° NNE 17:05:15 24° NE
Meteor 2-10 Rocket 3.6 17:01:52 10° S 17:06:54 51° E 17:11:49 10° NNE
Cosmos 2228 3.7 17:03:58 10° SSW 17:08:09 54° WNW 17:12:24 10° N
Cosmos 2278 Rocket 3.4 17:03:52 10° WNW 17:08:52 31° N 17:11:49 20° NE
ATLAS 5 CENTAUR R/B 1.9 17:06:30 10° W 17:11:05 71° N 17:13:29 32° ENE
Terra 3.9 17:11:53 13° NE 17:12:01 13° NNE 17:14:02 10° N
Meteor 2-15 Rocket 4.5 17:06:36 10° S 17:12:33 56° E 17:18:33 10° NNE
Cosmos 1241 Rocket 4.5 17:06:41 10° SW 17:13:07 88° SSE 17:17:31 23° ENE
Cosmos 1452 Rocket 4.3 17:09:31 10° WSW 17:14:41 51° NW 17:19:52 10° NNE
Helios 1A Rocket 4.4 17:11:15 10° S 17:15:08 39° W 17:19:01 10° NNW
SKYMED 2 3.6 17:11:23 10° NNE 17:15:47 85° WNW 17:20:08 10° SSW
Cosmos 1606 Rocket 4.5 17:12:28 10° SW 17:16:45 50° WNW 17:21:07 10° N
CZ-2C R/B 4.0 17:12:03 10° NNE 17:14:40 22° NE 17:14:40 22° NE
Cosmos 1689 Rocket 2.1 17:16:34 47° N 17:17:14 72° WNW 17:20:07 10° SSW
Cosmos 2151 2.8 17:13:54 10° NNW 17:18:08 67° ENE 17:19:28 41° SE
Cosmos 1992 Rocket 4.4 17:14:48 10° S 17:19:35 39° ESE 17:19:35 39° ESE
ARGOS 3.1 17:14:10 10° SSE 17:19:37 89° WSW 17:25:07 10° NNW
GENESIS II 4.3 17:15:46 10° SW 17:19:44 59° SE 17:20:07 56° ESE
SJ-6B 3.0 17:20:42 51° E 17:20:59 52° ENE 17:25:01 10° N
Cosmos 1745 Rocket 4.3 17:15:14 10° NNW 17:21:28 69° W 17:27:44 10° S
Okean-O 3.9 17:17:25 10° S 17:21:38 42° W 17:25:53 10° NNW
Cosmos 1844 Rocket 3.3 17:16:29 10° NW 17:21:55 43° NNE 17:23:39 34° ENE
PSLV R/B 3.9 17:19:51 10° NNE 17:24:05 85° WNW 17:28:16 10° SSW
SL-08 RB Rocket 3.5 17:22:30 31° SSE 17:24:40 78° ENE 17:29:12 10° NNW
Meteor 2-15 4.3 17:18:51 10° S 17:24:59 75° E 17:31:08 10° NNE
NOSS 7 (H) 4.3 17:22:36 10° WNW 17:25:42 82° NNE 17:25:46 81° NE
Cosmos 1656 3.7 17:20:37 10° SSW 17:26:05 55° ESE 17:28:36 31° ENE
Cosmos 2227 Rocket 4.0 17:21:35 10° NW 17:26:28 31° WSW 17:31:20 10° S
Cosmos 2058 3.8 17:22:32 10° NNW 17:26:30 48° W 17:30:27 10° S
Cosmos 1892 4.4 17:24:13 10° NNW 17:27:47 35° W 17:31:20 10° SSW
Cosmos 1400 Rocket 3.1 17:24:18 10° SSW 17:28:23 69° WNW 17:32:28 10° NNE
Cosmos 1408 Rocket 4.3 17:24:18 10° N 17:27:56 36° NE 17:27:56 36° NE
H-2A R/B 2.5 17:23:57 10° S 17:29:22 66° WSW 17:34:51 10° NNW
Ariane Rocket 2.9 17:27:38 35° SE 17:29:46 70° ENE 17:34:52 10° NNW
Resurs 1-3 4.1 17:32:09 42° NE 17:32:09 42° NE 17:36:01 10° N
CZ-4 R/B 3.0 17:28:28 10° SSW 17:32:00 33° W 17:35:32 10° NNW
Cosmos 1408 3.9 17:28:38 10° NNW 17:32:04 40° W 17:35:32 10° SSW
Cosmos 2263 Rocket 2.2 17:27:20 10° NW 17:33:05 88° SW 17:35:33 36° SE
Cosmos 1844 4.2 17:27:58 10° NW 17:33:18 43° NNE 17:34:38 37° ENE
CSL-04 Rocket 4.3 17:32:16 10° S 17:37:44 58° WSW 17:43:10 10° NNW
Cosmos 990 Rocket 4.4 17:32:43 10° NNW 17:37:46 45° NE 17:38:26 43° ENE
EO 1 Delta rocket 4.0 17:33:09 10° NNE 17:38:29 55° E 17:39:07 51° ESE
NOSS 3-4 (A) 4.1 17:33:22 10° WNW 17:39:56 60° SW 17:44:11 26° SSE
NOSS 3-4 (C) 4.1 17:33:29 10° WNW 17:40:02 60° SW 17:44:16 26° SSE
CZ-4C R/B 2.7 17:34:45 10° WNW 17:41:13 85° SSW 17:44:25 38° ESE
Cosmos 2184 Rocket 4.0 17:38:14 10° NNW 17:44:30 59° ENE 17:46:17 44° ESE
Meteor 2-1 Rocket 4.0 17:39:49 10° S 17:45:20 80° ESE 17:50:55 10° NNE
CRYOSAT 2 4.5 17:43:17 10° N 17:48:10 76° W 17:53:01 10° SSW
Cosmos 1825 3.4 17:45:28 10° NNW 17:49:05 41° W 17:51:37 17° SSW
SL-4 R/B 4.1 17:47:07 10° SW 17:49:04 15° SSW 17:49:04 15° SSW
SeaSat 1 3.5 17:46:27 17° S 17:49:58 43° WSW 17:54:42 10° NW
Cosmos 2058 Rocket 4.1 17:45:49 10° SW 17:50:11 47° WNW 17:54:36 10° N
Cosmos 1697 Rocket 3.1 17:45:16 10° S 17:49:37 43° SSE 17:49:37 43° SSE
Cosmos 1709 Rocket 4.3 17:44:54 10° NNW 17:51:15 71° W 17:57:36 10° S
USA 215 3.8 17:51:39 32° SSE 17:54:20 49° SSW 18:00:41 10° W
NOSS 2-1 (C) 3.5 17:50:48 10° W 17:54:28 65° N 17:54:31 65° N
ERS-2 4.5 17:51:58 10° N 17:54:57 24° NW 17:57:55 10° WSW
Cosmos 1633 4.2 17:54:30 10° NNW 17:56:15 27° N 17:56:15 27° N
OBJECT-B 3.1 18:00:30 20° N 18:00:30 20° N 18:01:38 10° NNW
Cosmos 1937 Rocket 4.0 17:53:52 10° NNW 17:58:47 44° NE 17:58:47 44° NE
Cosmos 44 3.1 17:54:17 10° SW 17:58:59 80° SE 17:59:04 79° SE
NOSS 2-1 (D) 3.6 17:56:03 10° W 17:59:36 64° NNW 17:59:36 64° NNW
ATLAS 2AS CENTAUR R/B 3.2 17:54:30 10° WNW 18:02:03 59° SW 18:05:17 33° SSE
COSMO-SKYMED 1 3.9 17:59:39 10° N 18:03:44 40° WNW 18:07:48 10° SW
MOS 1 Rocket 3.2 18:00:03 10° NNE 18:04:37 82° WNW 18:09:26 10° SSW
SJ 16-02 1.7 18:00:23 10° NNW 18:04:08 56° N 18:04:08 56° N
Cosmos 2074 Rocket 3.8 17:58:35 10° NNW 18:04:51 75° ENE 18:06:21 53° SE
Cosmos 1818 3.9 18:01:28 10° W 18:06:54 61° N 18:08:09 48° NE
Cosmos 2327 Rocket 4.4 18:02:30 10° NNW 18:08:38 60° ENE 18:08:58 59° E
Meteor 2-17 Rocket 4.3 18:02:36 10° NNW 18:08:42 86° WSW 18:10:59 41° S
COSMOS 2455 2.9 18:05:06 10° WNW 18:11:07 62° NNE 18:12:00 56° ENE
Cosmos 2341 Rocket 4.5 18:05:36 10° N 18:11:08 42° NE 18:11:08 42° NE
Cosmos 2369 Rocket 3.6 18:07:26 10° WNW 18:12:36 33° NNW 18:15:17 22° NNE
IRS-1A Rocket 4.5 18:10:35 34° S 18:13:01 67° WSW 18:18:33 10° NNW
Cosmos 883 Rocket 4.4 18:08:59 10° SSW 18:15:09 88° WNW 18:21:20 10° NNE
ERS-1 Rocket 4.3 18:18:48 28° NNE 18:18:48 28° NNE 18:21:59 10° N
Cosmos 2315 Rocket 3.8 18:12:58 10° S 18:19:10 85° E 18:25:25 10° NNE
Genesis I 4.4 18:15:21 10° WNW 18:18:05 40° NW 18:18:05 40° NW
S3M 4.4 18:13:49 10° SSW 18:19:53 62° WNW 18:26:05 10° NNE
Resurs 01 Rocket 2.5 18:24:28 41° N 18:24:28 41° N 18:27:27 10° NNW
MetOp-A 4.5 18:22:01 43° SSW 18:23:39 63° WSW 18:29:01 10° NNW
Lacrosse 5 2.6 18:19:05 10° W 18:23:30 43° SSW 18:23:30 43° SSW
Okean 3 Rocket 4.1 18:20:49 10° NNW 18:24:59 56° W 18:24:59 56° W
Cosmos 1766 Rocket 4.1 18:24:16 10° NNW 18:28:29 57° W 18:28:29 57° W
ARIANE 5 R/B 4.0 18:31:01 31° N 18:31:01 31° N 18:33:31 10° NNW
Cosmos 1898 Rocket 3.7 18:26:40 10° NNW 18:31:28 68° N 18:31:28 68° N
Meteor 2-3 Rocket 4.2 18:27:13 10° NNW 18:32:49 58° W 18:34:44 39° SSW
SPOT 3 Rocket 3.5 18:33:46 80° WNW 18:33:46 80° WNW 18:38:51 10° NNW
RESURS DK-1 4.0 18:38:44 10° NW 18:41:08 31° NNW 18:41:08 31° NNW
Cosmos 2154 Rocket 3.8 18:39:27 10° NNW 18:45:43 89° E 18:45:45 89° ESE
Cosmos 1943 Rocket 3.5 18:41:47 10° WNW 18:46:38 30° N 18:47:32 28° NNE
Terra 3.6 18:50:47 23° N 18:50:47 23° N 18:52:55 10° N
Cosmos 2278 Rocket 3.0 18:48:47 10° NW 18:53:39 43° NNE 18:53:39 43° NNE
ATLAS 5 CENTAUR R/B 2.5 18:51:12 10° WNW 18:55:01 56° NW 18:55:01 56° NW
Spot 2 Rocket 4.4 18:59:13 43° N 18:59:13 43° N 19:02:39 10° NNW
CZ-2C R/B 3.3 18:52:10 10° NNE 18:56:09 48° N 18:56:09 48° N
Cosmos 1844 Rocket 3.1 19:00:35 10° NW 19:05:18 61° WNW 19:05:18 61° WNW
Cosmos 1656 4.2 19:04:18 10° WSW 19:09:51 55° NW 19:10:04 55° NNW
Cosmos 2263 Rocket 3.7 19:11:43 10° NW 19:16:27 28° WSW 19:17:15 27° WSW
Cosmos 1844 4.3 19:12:19 10° NW 19:16:31 52° NW 19:16:31 52° NW
CZ-4C R/B 3.5 19:23:10 10° WNW 19:29:33 43° SW 19:29:36 43° SW
Cosmos 1697 Rocket 4.3 19:29:04 10° WSW 19:31:25 25° WSW 19:31:25 25° WSW
SJ 16-02 3.8 19:39:20 10° NW 19:41:07 20° WNW 19:41:07 20° WNW
ATLAS 2AS CENTAUR R/B 4.4 19:46:07 10° WNW 19:51:40 23° WSW 19:52:43 22° SW
COSMOS 2455 3.9 19:51:15 10° NW 19:55:08 40° WNW 19:55:08 40° WNW
Cosmos 2369 Rocket 3.7 19:52:53 10° NW 19:57:03 31° N 19:57:03 31° N
Resurs 01 Rocket 4.2 20:02:02 18° NW 20:02:02 18° NW 20:03:36 10° NW
Terra 4.3 20:29:41 18° NNW 20:29:41 18° NNW 20:30:57 10° NNW
Cosmos 1943 Rocket 4.0 20:26:23 10° NW 20:29:02 26° NNW 20:29:02 26° NNW
Cosmos 2278 Rocket 4.1 20:33:04 10° NW 20:35:28 26° NW 20:35:28 26° NW
SL-16 R/B 4.3 21:51:04 27° NNE 21:51:04 27° NNE 21:54:36 10° NNW
Cosmos 2333 Rocket 4.4 23:02:57 20° NE 23:02:57 20° NE 23:04:42 10° NE
Cosmos 2237 Rocket 4.4 23:10:37 20° NE 23:10:37 20° NE 23:12:13 10° NE
Cosmos 2360 Rocket 4.3 23:17:31 22° NNE 23:17:31 22° NNE 23:19:45 10° NE
Cosmos 1980 Rocket 4.5 23:30:56 18° ENE 23:30:56 18° ENE 23:32:36 10° ENE
Resurs 1-4 Rocket 4.3 23:26:50 10° NNE 23:28:50 21° NE 23:28:50 21° NE
SL-16 R/B 4.2 23:36:10 25° NNW 23:36:10 25° NNW 23:38:33 10° NNW
SL-16 R/B 4.2 23:36:52 24° NE 23:36:52 24° NE 23:38:59 10° NE
Cosmos 2219 Rocket 4.1 23:43:23 26° NNE 23:43:23 26° NNE 23:46:04 10° NE
CZ-2D R/B 4.2 23:45:31 10° NNE 23:47:39 23° NE 23:47:39 23° NE
